When you browse on this site, cookies collect data to enhance your experience and personalize the content and advertising you see.
Visit our Privacy Policy to learn more. By continuing to use the site, you agree to this use of cookies and data.
  • în România
  • Lista ţărilor
  • Pe 7 zile
  • Temperatura apei
  • Hartă satelitară
  • Meteo pe hartă
  • Widget-uri
  • user-avatar
    Intrare

    Meteo pe oră la Ploieşti

    Astăzi, 19 Noiembrie, Luni

    Timp Temperatura Precipitaţii Vânt Presiune Umiditate
    00:00 -1°C° 0.6 mm 4 m/s 750 mmHg 84%
    01:00 -1°C° 0.6 mm 4 m/s 749 mmHg 87%
    02:00 -1°C° 0 mm 5 m/s 748 mmHg 90%
    03:00 -1°C° 1.3 mm 5 m/s 748 mmHg 90%
    04:00 -1°C° 1.3 mm 5 m/s 747 mmHg 90%
    05:00 0°C° 1.3 mm 5 m/s 746 mmHg 90%
    06:00 0°C° 2.1 mm 5 m/s 746 mmHg 91%
    07:00 0°C° 2.1 mm 5 m/s 746 mmHg 93%
    08:00 0°C° 2.1 mm 4 m/s 745 mmHg 94%
    09:00 0°C° 1.1 mm 4 m/s 745 mmHg 94%
    10:00 +1°C° 1.1 mm 3 m/s 746 mmHg 95%
    11:00 +2°C° 1.1 mm 3 m/s 746 mmHg 95%
    12:00 +2°C° 0.2 mm 3 m/s 746 mmHg 95%
    13:00 +3°C° 0.2 mm 2 m/s 746 mmHg 95%
    14:00 +3°C° 0.2 mm 2 m/s 746 mmHg 95%
    15:00 +3°C° 0 mm 2 m/s 747 mmHg 96%
    16:00 +3°C° 0 mm 2 m/s 747 mmHg 96%
    17:00 +2°C° 0 mm 2 m/s 747 mmHg 96%
    18:00 +2°C° 0 mm 2 m/s 748 mmHg 96%
    19:00 +1°C° 0 mm 2 m/s 749 mmHg 96%
    20:00 +1°C° 0 mm 2 m/s 749 mmHg 95%
    21:00 +2°C° 0 mm 1 m/s 750 mmHg 94%
    22:00 +2°C° 0 mm 1 m/s 750 mmHg 93%
    23:00 +2°C° 0 mm 1 m/s 750 mmHg 93%

    Mâine, 20 Noiembrie, Marţi

    Timp Temperatura Precipitaţii Vânt Presiune Umiditate
    00:00 +1°C° 0 mm 1 m/s 751 mmHg 92%
    01:00 +1°C° 0 mm 1 m/s 751 mmHg 92%
    02:00 0°C° 0 mm 0 m/s 752 mmHg 92%
    03:00 +1°C° 0 mm 1 m/s 752 mmHg 92%
    04:00 +1°C° 0 mm 1 m/s 752 mmHg 92%
    05:00 +1°C° 0 mm 1 m/s 752 mmHg 92%
    06:00 +2°C° 0 mm 1 m/s 752 mmHg 92%
    07:00 +1°C° 0 mm 2 m/s 752 mmHg 91%
    08:00 +1°C° 0 mm 2 m/s 752 mmHg 91%
    09:00 +2°C° 0 mm 2 m/s 752 mmHg 89%
    10:00 +1°C° 0 mm 3 m/s 752 mmHg 88%
    11:00 +2°C° 0 mm 3 m/s 752 mmHg 86%
    12:00 +2°C° 0.1 mm 3 m/s 752 mmHg 86%
    13:00 +1°C° 0.1 mm 4 m/s 751 mmHg 86%
    14:00 +1°C° 0.1 mm 4 m/s 751 mmHg 86%
    15:00 +1°C° 0.4 mm 4 m/s 751 mmHg 88%
    16:00 +1°C° 0.4 mm 4 m/s 751 mmHg 89%
    17:00 +1°C° 0.4 mm 5 m/s 751 mmHg 90%
    18:00 +1°C° 0.5 mm 5 m/s 751 mmHg 90%
    19:00 0°C° 0.5 mm 5 m/s 751 mmHg 90%
    20:00 0°C° 0.5 mm 5 m/s 751 mmHg 91%
    21:00 0°C° 0.5 mm 5 m/s 751 mmHg 91%
    22:00 0°C° 0.5 mm 5 m/s 750 mmHg 90%
    23:00 0°C° 0.5 mm 5 m/s 750 mmHg 90%

    Poimâine, 21 Noiembrie, Miercuri

    Timp Temperatura Precipitaţii Vânt Presiune Umiditate
    00:00 0°C° 0.2 mm 5 m/s 750 mmHg 90%
    01:00 0°C° 0.2 mm 5 m/s 750 mmHg 90%
    02:00 0°C° 0.2 mm 5 m/s 750 mmHg 90%
    03:00 0°C° 0.1 mm 5 m/s 750 mmHg 90%
    04:00 +1°C° 0.1 mm 5 m/s 749 mmHg 89%
    05:00 +1°C° 0.1 mm 5 m/s 749 mmHg 89%
    06:00 +1°C° 0.2 mm 5 m/s 749 mmHg 89%
    07:00 +1°C° 0.2 mm 5 m/s 749 mmHg 89%
    08:00 +1°C° 0.2 mm 5 m/s 749 mmHg 89%
    09:00 +1°C° 0.2 mm 5 m/s 749 mmHg 88%
    10:00 +1°C° 0.2 mm 5 m/s 750 mmHg 88%
    11:00 +2°C° 0.2 mm 5 m/s 750 mmHg 87%
    12:00 +2°C° 0.1 mm 5 m/s 750 mmHg 87%
    13:00 +2°C° 0.1 mm 5 m/s 750 mmHg 86%
    14:00 +2°C° 0.1 mm 5 m/s 750 mmHg 85%
    15:00 +2°C° 0.1 mm 5 m/s 750 mmHg 85%
    16:00 +2°C° 0.1 mm 5 m/s 750 mmHg 85%
    17:00 +1°C° 0.1 mm 5 m/s 750 mmHg 85%
    18:00 +1°C° 0.1 mm 5 m/s 751 mmHg 84%
    19:00 +1°C° 0.1 mm 5 m/s 751 mmHg 84%
    20:00 +1°C° 0.1 mm 5 m/s 752 mmHg 83%
    21:00 +1°C° 0 mm 4 m/s 752 mmHg 82%
    22:00 +1°C° 0 mm 4 m/s 752 mmHg 82%
    23:00 +1°C° 0 mm 4 m/s 753 mmHg 81%

    22 Noiembrie, Joi

    Timp Temperatura Precipitaţii Vânt Presiune Umiditate
    00:00 0°C° 0 mm 4 m/s 753 mmHg 80%
    01:00 +1°C° 0 mm 3 m/s 753 mmHg 80%
    02:00 +1°C° 0 mm 3 m/s 753 mmHg 79%
    03:00 +1°C° 0 mm 3 m/s 753 mmHg 78%
    04:00 +1°C° 0 mm 3 m/s 753 mmHg 78%
    05:00 +1°C° 0 mm 3 m/s 754 mmHg 77%
    06:00 +1°C° 0 mm 3 m/s 754 mmHg 76%
    07:00 0°C° 0 mm 3 m/s 754 mmHg 75%
    08:00 0°C° 0 mm 3 m/s 755 mmHg 75%
    09:00 +1°C° 0 mm 3 m/s 755 mmHg 72%
    10:00 +1°C° 0 mm 3 m/s 755 mmHg 69%
    11:00 +2°C° 0 mm 3 m/s 755 mmHg 66%
    12:00 +2°C° 0 mm 3 m/s 755 mmHg 66%
    13:00 +3°C° 0 mm 3 m/s 755 mmHg 65%
    14:00 +4°C° 0 mm 2 m/s 755 mmHg 64%
    15:00 +3°C° 0 mm 2 m/s 755 mmHg 68%
    16:00 +3°C° 0 mm 2 m/s 755 mmHg 71%
    17:00 +2°C° 0 mm 2 m/s 755 mmHg 74%
    18:00 +1°C° 0 mm 2 m/s 756 mmHg 77%
    19:00 +1°C° 0 mm 2 m/s 756 mmHg 79%
    20:00 -1°C° 0 mm 2 m/s 756 mmHg 81%
    21:00 +1°C° 0 mm 1 m/s 756 mmHg 82%
    22:00 0°C° 0 mm 1 m/s 757 mmHg 83%
    23:00 0°C° 0 mm 1 m/s 757 mmHg 84%

    23 Noiembrie, Vineri

    Timp Temperatura Precipitaţii Vânt Presiune Umiditate
    00:00 0°C° 0 mm 1 m/s 757 mmHg 84%
    01:00 0°C° 0 mm 1 m/s 757 mmHg 83%
    02:00 0°C° 0 mm 1 m/s 757 mmHg 83%
    03:00 0°C° 0 mm 1 m/s 758 mmHg 82%
    04:00 0°C° 0 mm 1 m/s 758 mmHg 82%
    05:00 0°C° 0 mm 1 m/s 758 mmHg 81%
    06:00 0°C° 0 mm 1 m/s 758 mmHg 80%
    07:00 0°C° 0 mm 1 m/s 759 mmHg 79%
    08:00 -1°C° 0 mm 0 m/s 759 mmHg 78%
    09:00 +1°C° 0 mm 1 m/s 759 mmHg 74%
    10:00 +3°C° 0 mm 1 m/s 760 mmHg 69%
    11:00 +4°C° 0 mm 1 m/s 760 mmHg 65%
    12:00 +4°C° 0 mm 1 m/s 760 mmHg 64%
    13:00 +5°C° 0 mm 1 m/s 759 mmHg 63%
    14:00 +6°C° 0 mm 1 m/s 759 mmHg 62%
    15:00 +5°C° 0 mm 1 m/s 759 mmHg 66%
    16:00 +3°C° 0 mm 1 m/s 759 mmHg 70%
    17:00 +2°C° 0 mm 1 m/s 760 mmHg 74%
    18:00 +2°C° 0 mm 1 m/s 760 mmHg 75%
    19:00 +2°C° 0 mm 1 m/s 760 mmHg 76%
    20:00 +1°C° 0 mm 1 m/s 760 mmHg 78%
    21:00 +1°C° 0 mm 1 m/s 761 mmHg 78%
    22:00 +1°C° 0 mm 1 m/s 761 mmHg 79%
    23:00 +1°C° 0 mm 1 m/s 761 mmHg 80%

    24 Noiembrie, Sâmbătă

    Timp Temperatura Precipitaţii Vânt Presiune Umiditate
    00:00 +1°C° 0 mm 1 m/s 761 mmHg 80%
    01:00 0°C° 0 mm 1 m/s 761 mmHg 80%
    02:00 -1°C° 0 mm 0 m/s 761 mmHg 80%
    03:00 -1°C° 0 mm 0 m/s 760 mmHg 80%
    04:00 -1°C° 0 mm 0 m/s 760 mmHg 80%
    05:00 -1°C° 0 mm 0 m/s 760 mmHg 79%
    06:00 -1°C° 0 mm 0 m/s 760 mmHg 79%
    07:00 -1°C° 0 mm 0 m/s 760 mmHg 79%
    08:00 -1°C° 0 mm 0 m/s 760 mmHg 78%
    09:00 +2°C° 0 mm 1 m/s 760 mmHg 74%
    10:00 +3°C° 0 mm 1 m/s 760 mmHg 71%
    11:00 +5°C° 0 mm 1 m/s 759 mmHg 67%
    12:00 +5°C° 0 mm 1 m/s 759 mmHg 65%
    13:00 +6°C° 0 mm 1 m/s 758 mmHg 64%
    14:00 +7°C° 0 mm 1 m/s 758 mmHg 63%
    15:00 +6°C° 0 mm 1 m/s 758 mmHg 67%
    16:00 +4°C° 0 mm 1 m/s 758 mmHg 70%
    17:00 +3°C° 0 mm 1 m/s 757 mmHg 74%
    18:00 +3°C° 0 mm 1 m/s 757 mmHg 75%
    19:00 +3°C° 0 mm 1 m/s 757 mmHg 76%
    20:00 +2°C° 0 mm 1 m/s 757 mmHg 76%
    21:00 +2°C° 0 mm 1 m/s 757 mmHg 76%
    22:00 +2°C° 0 mm 1 m/s 757 mmHg 76%
    23:00 +2°C° 0 mm 1 m/s 757 mmHg 75%
    Arată mai mult